Location: Ocean City
(38.3360°N, 75.0850°W)
Time: 09:34:12
(UTC-04:00)

ISS - Visible Passes

Search period start: 21 March 2019 00:00
Search period end: 31 March 2019 00:00
Orbit: 406 x 411 km, 51.6° (Epoch: 21 March)

Date Brightness Start Highest point End Pass type
(mag) Time Alt. Az. Time Alt. Az. Time Alt. Az.
21 Mar -3.3 20:01:44 10° SSW 20:04:51 40° SE 20:07:15 15° ENE visible
21 Mar -0.9 21:38:47 10° W 21:40:02 17° WNW 21:40:02 17° WNW visible
22 Mar -2.4 20:47:12 10° WSW 20:50:18 37° NNW 20:51:48 23° NNE visible
23 Mar -3.5 19:55:53 10° WSW 19:59:10 70° NW 20:02:27 10° NE visible
23 Mar -0.8 21:34:21 10° NW 21:36:09 14° NNW 21:36:09 14° NNW visible
24 Mar -1.3 20:42:23 10° WNW 20:44:52 19° NNW 20:47:22 10° NNE visible
25 Mar -1.9 19:50:39 10° W 19:53:35 29° NNW 19:56:32 10° NNE visible
26 Mar -0.9 20:38:05 10° NW 20:39:33 12° NNW 20:41:01 10° N visible
27 Mar -1.1 19:45:56 10° WNW 19:48:08 16° NNW 19:50:20 10° NNE visible
